Stündliche Wetter Kyyashkivs'ke

Heute, 16 Mai, Sonntag

Zeit Temperatur Niederschläge Wind Luftdruck Luftfeuchtigkeit
00:00 +15°C° 0 mm 2 m/S 744 mmHg 82%
01:00 +14°C° 0 mm 2 m/S 744 mmHg 83%
02:00 +14°C° 0 mm 2 m/S 744 mmHg 84%
03:00 +14°C° 0 mm 1 m/S 744 mmHg 85%
04:00 +13°C° 0 mm 1 m/S 744 mmHg 86%
05:00 +13°C° 0 mm 1 m/S 745 mmHg 87%
06:00 +15°C° 0 mm 1 m/S 745 mmHg 81%
07:00 +18°C° 0 mm 1 m/S 745 mmHg 75%
08:00 +20°C° 0 mm 1 m/S 745 mmHg 69%
09:00 +21°C° 0 mm 1 m/S 745 mmHg 64%
10:00 +22°C° 0 mm 1 m/S 745 mmHg 59%
11:00 +23°C° 0 mm 1 m/S 745 mmHg 54%
12:00 +24°C° 0 mm 1 m/S 745 mmHg 52%
13:00 +24°C° 0 mm 1 m/S 745 mmHg 49%
14:00 +25°C° 0 mm 1 m/S 745 mmHg 47%
15:00 +25°C° 0 mm 1 m/S 744 mmHg 51%
16:00 +24°C° 0 mm 2 m/S 744 mmHg 56%
17:00 +24°C° 0 mm 2 m/S 743 mmHg 61%
18:00 +21°C° 0 mm 2 m/S 743 mmHg 65%
19:00 +19°C° 0 mm 3 m/S 743 mmHg 70%
20:00 +18°C° 0 mm 3 m/S 743 mmHg 75%
21:00 +17°C° 0 mm 3 m/S 742 mmHg 77%
22:00 +16°C° 0 mm 3 m/S 742 mmHg 79%
23:00 +16°C° 0 mm 3 m/S 742 mmHg 81%

Morgen, 17 Mai, Montag

Zeit Temperatur Niederschläge Wind Luftdruck Luftfeuchtigkeit
00:00 +15°C° 0.5 mm 4 m/S 741 mmHg 84%
01:00 +15°C° 0.5 mm 4 m/S 741 mmHg 87%
02:00 +15°C° 0.5 mm 4 m/S 740 mmHg 91%
03:00 +14°C° 0.1 mm 4 m/S 740 mmHg 91%
04:00 +14°C° 0.1 mm 4 m/S 740 mmHg 92%
05:00 +14°C° 0.1 mm 3 m/S 739 mmHg 93%
06:00 +17°C° 0 mm 4 m/S 739 mmHg 88%
07:00 +18°C° 0 mm 4 m/S 739 mmHg 82%
08:00 +19°C° 0 mm 5 m/S 738 mmHg 77%
09:00 +20°C° 0 mm 5 m/S 738 mmHg 70%
10:00 +22°C° 0 mm 5 m/S 738 mmHg 63%
11:00 +25°C° 0 mm 5 m/S 738 mmHg 56%
12:00 +25°C° 0 mm 5 m/S 738 mmHg 58%
13:00 +25°C° 0 mm 5 m/S 738 mmHg 59%
14:00 +26°C° 0 mm 6 m/S 737 mmHg 61%
15:00 +26°C° 0 mm 6 m/S 737 mmHg 64%
16:00 +24°C° 0 mm 6 m/S 737 mmHg 68%
17:00 +24°C° 0 mm 6 m/S 737 mmHg 71%
18:00 +23°C° 0 mm 6 m/S 737 mmHg 74%
19:00 +21°C° 0 mm 6 m/S 737 mmHg 77%
20:00 +20°C° 0 mm 6 m/S 737 mmHg 80%
21:00 +17°C° 0 mm 6 m/S 738 mmHg 82%
22:00 +16°C° 0 mm 6 m/S 738 mmHg 83%
23:00 +15°C° 0 mm 6 m/S 738 mmHg 84%

übermorgen, 18 Mai, Dienstag

Zeit Temperatur Niederschläge Wind Luftdruck Luftfeuchtigkeit
00:00 +15°C° 0 mm 6 m/S 737 mmHg 85%
01:00 +14°C° 0 mm 6 m/S 737 mmHg 87%
02:00 +14°C° 0 mm 6 m/S 737 mmHg 88%
03:00 +15°C° 0 mm 6 m/S 737 mmHg 89%
04:00 +15°C° 0 mm 6 m/S 737 mmHg 90%
05:00 +15°C° 0 mm 6 m/S 737 mmHg 91%
06:00 +15°C° 0 mm 6 m/S 738 mmHg 90%
07:00 +15°C° 0 mm 6 m/S 738 mmHg 88%
08:00 +16°C° 0 mm 6 m/S 738 mmHg 86%
09:00 +17°C° 0.1 mm 6 m/S 738 mmHg 80%
10:00 +20°C° 0.1 mm 6 m/S 738 mmHg 74%
11:00 +21°C° 0.1 mm 7 m/S 738 mmHg 68%
12:00 +20°C° 1 mm 6 m/S 738 mmHg 72%
13:00 +20°C° 1 mm 6 m/S 738 mmHg 75%
14:00 +19°C° 1 mm 6 m/S 738 mmHg 79%
15:00 +19°C° 0.5 mm 6 m/S 738 mmHg 81%
16:00 +17°C° 0.5 mm 6 m/S 738 mmHg 84%
17:00 +17°C° 0.5 mm 7 m/S 737 mmHg 86%
18:00 +16°C° 0.2 mm 6 m/S 737 mmHg 88%
19:00 +16°C° 0.2 mm 6 m/S 737 mmHg 90%
20:00 +15°C° 0.2 mm 5 m/S 737 mmHg 92%
21:00 +15°C° 0.2 mm 5 m/S 737 mmHg 93%
22:00 +14°C° 0.2 mm 5 m/S 737 mmHg 95%
23:00 +14°C° 0.2 mm 4 m/S 737 mmHg 96%

19 Mai, Mittwoch

Zeit Temperatur Niederschläge Wind Luftdruck Luftfeuchtigkeit
00:00 +13°C° 0.4 mm 4 m/S 737 mmHg 96%
01:00 +12°C° 0.4 mm 3 m/S 738 mmHg 96%
02:00 +12°C° 0.4 mm 3 m/S 738 mmHg 95%
03:00 +11°C° 0 mm 3 m/S 738 mmHg 95%
04:00 +11°C° 0 mm 3 m/S 738 mmHg 95%
05:00 +11°C° 0 mm 4 m/S 738 mmHg 96%
06:00 +11°C° 0 mm 4 m/S 738 mmHg 90%
07:00 +12°C° 0 mm 5 m/S 738 mmHg 85%
08:00 +13°C° 0 mm 5 m/S 739 mmHg 80%
09:00 +13°C° 0.1 mm 5 m/S 739 mmHg 81%
10:00 +13°C° 0.1 mm 5 m/S 739 mmHg 81%
11:00 +13°C° 0.1 mm 5 m/S 739 mmHg 82%
12:00 +13°C° 0.1 mm 6 m/S 739 mmHg 82%
13:00 +12°C° 0.1 mm 7 m/S 739 mmHg 81%
14:00 +12°C° 0.1 mm 7 m/S 739 mmHg 81%
15:00 +11°C° 0.1 mm 7 m/S 739 mmHg 84%
16:00 +10°C° 0.1 mm 8 m/S 739 mmHg 87%
17:00 +9°C° 0.1 mm 8 m/S 739 mmHg 91%
18:00 +9°C° 0 mm 8 m/S 740 mmHg 91%
19:00 +9°C° 0 mm 8 m/S 740 mmHg 90%
20:00 +9°C° 0 mm 8 m/S 741 mmHg 90%
21:00 +9°C° 0 mm 8 m/S 741 mmHg 89%
22:00 +9°C° 0 mm 7 m/S 741 mmHg 88%
23:00 +9°C° 0 mm 7 m/S 742 mmHg 87%

20 Mai, Donnerstag

Zeit Temperatur Niederschläge Wind Luftdruck Luftfeuchtigkeit
00:00 +9°C° 0 mm 7 m/S 742 mmHg 87%
01:00 +8°C° 0 mm 6 m/S 742 mmHg 87%
02:00 +8°C° 0 mm 5 m/S 742 mmHg 87%
03:00 +8°C° 0 mm 5 m/S 743 mmHg 89%
04:00 +8°C° 0 mm 4 m/S 743 mmHg 91%
05:00 +7°C° 0 mm 4 m/S 743 mmHg 93%
06:00 +10°C° 0 mm 4 m/S 744 mmHg 87%
07:00 +12°C° 0 mm 5 m/S 744 mmHg 81%
08:00 +14°C° 0 mm 5 m/S 744 mmHg 75%
09:00 +15°C° 0 mm 5 m/S 744 mmHg 70%
10:00 +16°C° 0 mm 5 m/S 745 mmHg 66%
11:00 +18°C° 0 mm 4 m/S 745 mmHg 61%
12:00 +18°C° 0 mm 4 m/S 745 mmHg 60%
13:00 +19°C° 0 mm 3 m/S 745 mmHg 59%
14:00 +19°C° 0 mm 3 m/S 745 mmHg 57%
15:00 +19°C° 0 mm 2 m/S 745 mmHg 59%
16:00 +19°C° 0 mm 1 m/S 745 mmHg 61%
17:00 +19°C° 0 mm 1 m/S 745 mmHg 62%
18:00 +18°C° 0 mm 1 m/S 745 mmHg 66%
19:00 +16°C° 0 mm 2 m/S 745 mmHg 70%
20:00 +15°C° 0 mm 2 m/S 745 mmHg 74%
21:00 +13°C° 0 mm 3 m/S 744 mmHg 74%
22:00 +13°C° 0 mm 4 m/S 744 mmHg 74%
23:00 +13°C° 0 mm 5 m/S 743 mmHg 75%

21 Mai, Freitag

Zeit Temperatur Niederschläge Wind Luftdruck Luftfeuchtigkeit
00:00 +13°C° 0 mm 6 m/S 742 mmHg 74%
01:00 +13°C° 0 mm 6 m/S 742 mmHg 72%
02:00 +14°C° 0 mm 7 m/S 741 mmHg 71%
03:00 +12°C° 1.3 mm 8 m/S 740 mmHg 79%
04:00 +12°C° 1.3 mm 8 m/S 739 mmHg 86%
05:00 +12°C° 1.3 mm 8 m/S 739 mmHg 93%
06:00 +12°C° 1.9 mm 8 m/S 738 mmHg 92%
07:00 +12°C° 1.9 mm 7 m/S 738 mmHg 91%
08:00 +14°C° 1.9 mm 7 m/S 737 mmHg 89%
09:00 +15°C° 0.1 mm 7 m/S 738 mmHg 82%
10:00 +17°C° 0.1 mm 7 m/S 738 mmHg 75%
11:00 +18°C° 0.1 mm 8 m/S 738 mmHg 68%
12:00 +18°C° 0.1 mm 8 m/S 738 mmHg 66%
13:00 +18°C° 0.1 mm 8 m/S 738 mmHg 65%
14:00 +18°C° 0.1 mm 8 m/S 738 mmHg 63%
15:00 +17°C° 0.2 mm 8 m/S 738 mmHg 67%
16:00 +16°C° 0.2 mm 7 m/S 738 mmHg 71%
17:00 +16°C° 0.2 mm 7 m/S 738 mmHg 75%
18:00 +14°C° 0.1 mm 7 m/S 739 mmHg 79%
19:00 +13°C° 0.1 mm 6 m/S 739 mmHg 83%
20:00 +12°C° 0.1 mm 5 m/S 740 mmHg 87%
21:00 +10°C° 0 mm 5 m/S 740 mmHg 90%
22:00 +11°C° 0 mm 4 m/S 741 mmHg 93%
23:00 +11°C° 0 mm 3 m/S 741 mmHg 96%
Mehr zeigen

Wir brauchen deine Erlaubnis

Meteoprog und unser Service Anbieter werden persönliche Daten aufbewahren, so wie Cookies, Geräte Bezeichnung oder ähnliche Technologien von deinem Gerät und Prozess, so wie Persönliche Daten Inhalte und Werbungen, genauso wie social Media und den Verkehr zu analysieren.

  • Aufbewahrung und/oder Zugang zu deiner Geräte Informationen.

    Cookies, Geräte Bezeichnung oder andere Informationen, können aufbewahrt oder Zugang zu deinem Gerät erhalten, für den Grund, der oben angegeben wird.

  • Personalisierte Werbung und Inhalte, Messungen, Einblick in das Publikum und Produkt Entwicklung.

    Werbungen und Inhalte können personalisiert werden, basierend auf ein Profil. Mehr Daten können besser personalisierte Werbungen und Inhalte hinzufügen. Werbung und Inhalte können gezeigt und gemessen werden. Einblicke über das Publikum, welche die Werbung gesehen haben und den Inhalt, können abgeleitet werden. So wie Daten können genutzt werden, um es zu verbessern oder die Benutzer Erfahrung zu verbessern das System und die Software.

Wenn du “Ich stimme zu” klickst, erlaubst du uns, die Cookies zu benutzen die Geräte Bezeichnung, den Web oder ähnliche Technologien zu benutzen. Deine Settings, können in deinem Gerät bei deinem Browser geändert werden.

Für den bestimmten Zweck, berechtigten Interessen beruhen darauf, mehr als auf den Inhalt. Du kannst mehr darüber in unseren Privaten und Cookie Politik lesen.